x

South Hatteras - 225 South Of Cape Hatteras (41002) Wave Buoy

11:50 - Sat 28th Mar 2015 All times are EDT. -4 hours from GMT.

  • Sig Wave height 10.2ft
  • Swell Direction
  • Peak Period 8s
  • Average Period 7s
  • Wind
    25mph, 29mph gusts
  • Sea Temp 68°f
  • Ar Temp 59°f
  • Sea Pressure 1020mb
  • South Hatteras - 225 South Of Cape Hatteras
  • South Hatteras - 225 South Of Cape Hatteras

More Historic Weather Station data

Upgrade to MSW Pro to gain access to the past 30 days of data for over 8000 Wavebouys and Weather Stations around the globe.

Join Pro

Comparision Forecast

View Surf forecast
   
Sáb 03/28 11:50 10ft 8s 7s 25 29 mph 1020mb 68f 59f
10:50 10ft 8s 7s 18 25 mph 1019.8mb 68f 58f
9:50 10ft 9s 7s 22 29 mph 1019mb 68f 60f
8:50 10ft 9s 7s 22 31 mph 1018.4mb 68f 60f
7:50 10.5ft 9s 7s 13 22 mph 1017.8mb 69f 58f
6:50 12ft 9s 8s 18 22 mph 1016.6mb 69f 62f
5:50 11ft 10s 7s 18 25 mph 1016mb 69f 60f
4:50 12ft 10s 7s 22 27 mph 1015.4mb 69f 62f
3:50 12ft 10s 7s 22 27 mph 1015.1mb 69f 61f
2:50 11ft 9s 7s 18 22 mph 1015.4mb 68f 60f
1:50 13ft 10s 8s 20 25 mph 1015.5mb 68f 60f
12:50 14ft 10s 7s 25 29 mph 1015mb 68f 60f
11:50 13.5ft 10s 8s 22 29 mph 1014.8mb 68f 61f
10:50 14ft 9s 7s 27 34 mph 1014.1mb 68f 61f
9:50 14.5ft 9s 7s 31 38 mph 1013.2mb 68f 62f
8:50 13ft 9s 7s 31 40 mph 1012mb 68f 62f
7:50 12ft 9s 7s 31 40 mph 1010.5mb 69f 62f
6:50 12ft 8s 7s 29 34 mph 1009.4mb 69f 64f
5:50 14ft 8s 7s 27 36 mph 1008mb 69f 64f
4:50 13ft 8s 7s 31 40 mph 1006.7mb 69f 66f
3:50 11.5ft 8s 7s 27 34 mph 1005.5mb 69f 67f
2:50 9ft 8s 7s 25 31 mph 1004.9mb 69f 69f
1:50 11ft 8s 7s 20 25 mph 1005.3mb 69f 67f
12:50 11ft 8s 7s 27 34 mph 1004.7mb 69f 70f
Sex 03/27 11:50 11ft 8s 7s 27 34 mph 1004.8mb 69f 70f
10:50 10ft 8s 7s 27 34 mph 1005.6mb 69f 70f
9:50 9.5ft 8s 7s 27 31 mph 1006.3mb 69f 70f
8:50 9ft 8s 7s 22 27 mph 1005.9mb 69f 70f
7:50 9ft 8s 6s 16 20 mph 1006.3mb 69f 70f
6:50 9.5ft 8s 7s 16 18 mph 1006.3mb 69f 71f
5:50 10.5ft 8s 7s 16 22 mph 1006.4mb 69f 71f
4:50 9ft 8s 7s 18 22 mph 1006.4mb 69f 71f
3:50 11ft 8s 7s 18 22 mph 1006.7mb 69f 71f
2:50 10.5ft 8s 7s 20 25 mph 1007.4mb 69f 71f
1:50 11ft 8s 7s 25 31 mph 1007.9mb 69f 71f
12:50 11ft 8s 7s 29 36 mph 1007.7mb 69f 72f
11:50 10.5ft 8s 7s 27 34 mph 1008.3mb 69f 71f
10:50 9ft 8s 6s 27 34 mph 1008.2mb 69f 72f
9:50 9ft 8s 7s 22 27 mph 1008.9mb 69f 71f
8:50 10.5ft 8s 7s 16 20 mph 1010mb 69f 70f
7:50 9ft 7s 6s 16 20 mph 1010.1mb 69f 71f
6:50 9ft 7s 6s 20 25 mph 1010.1mb 69f 71f
5:50 8ft 7s 6s 25 29 mph 1009.6mb 69f 71f
4:50 8.5ft 8s 6s 22 29 mph 1009.8mb 69f 71f
3:50 9ft 8s 6s 18 20 mph 1011.2mb 69f 68f
2:50 7.5ft 7s 6s 22 29 mph 1011.7mb 69f 69f
1:50 8ft 8s 6s 22 27 mph 1012.8mb 69f 70f
12:50 8ft 7s 6s 25 29 mph 1013.3mb 69f 70f
Qui 03/26 11:50 7ft 7s 6s 20 25 mph 1014.2mb 69f 71f
10:50 8ft 7s 6s 22 29 mph 1014.6mb 69f 71f
9:50 8ft 7s 6s 22 27 mph 1014.9mb 69f 71f
8:50 7ft 7s 6s 20 25 mph 1015.5mb 69f 71f
7:50 7.5ft 8s 6s 20 25 mph 1015.6mb 69f 71f
6:50 7.5ft 7s 6s 20 25 mph 1015.5mb 69f 71f
5:50 7ft 7s 6s 20 25 mph 1015.9mb 69f 70f
4:50 7ft 7s 6s 20 25 mph 1016.1mb 69f 71f
3:50 7.5ft 7s 6s 22 27 mph 1016.5mb 69f 70f
2:50 7ft 6s 6s 25 31 mph 1017mb 69f 70f
1:50 7ft 6s 5s 27 31 mph 1018.3mb 69f 70f
12:50 8ft 7s 6s 27 31 mph 1018.8mb 69f 70f
11:50 6.5ft 7s 5s 27 34 mph 1020mb 69f 70f
10:50 7ft 7s 5s 27 31 mph 1020.4mb 69f 70f
9:50 6ft 7s 5s 25 29 mph 1020.5mb 69f 70f
8:50 6ft 7s 5s 22 29 mph 1021.1mb 69f 70f
7:50 6ft 7s 5s 25 29 mph 1021.1mb 69f 70f
6:50 6.5ft 7s 5s 22 27 mph 1021mb 70f 69f
5:50 6.5ft 7s 5s 22 29 mph 1021.2mb 70f 69f
4:50 7ft 7s 5s 22 27 mph 1021.4mb 70f 69f
3:50 7ft 7s 5s 22 27 mph 1021.6mb 70f 69f
2:50 6ft 6s 5s 25 29 mph 1022.1mb 70f 69f
1:50 6ft 6s 5s 22 29 mph 1022.6mb 70f 69f
12:50 6ft 6s 5s 25 29 mph 1023mb 70f 69f
Qua 03/25 11:50 5.5ft 6s 5s 22 27 mph 1023.8mb 70f 69f
10:50 5.5ft 5s 5s 22 27 mph 1024.3mb 70f 69f
9:50 5ft 5s 5s 22 27 mph 1024.3mb 70f 69f
8:50 5ft 5s 5s 22 27 mph 1024mb 70f 69f
7:50 5ft 6s 5s 25 27 mph 1023.7mb 69f 68f
6:50 4.5ft 8s 5s 27 34 mph 1022.5mb 69f 68f
5:50 5ft 6s 5s 20 25 mph 1023.6mb 70f 69f
4:50 5ft 7s 5s 18 20 mph 1024.5mb 71f 69f
3:50 5ft 8s 5s 18 20 mph 1024.6mb 71f 69f
2:50 5ft 5s 5s 20 25 mph 1024.2mb 71f 69f
1:50 5ft 8s 5s 20 22 mph 1024.7mb 71f 68f
12:50 5ft 8s 5s 18 22 mph 1025.5mb 71f 68f
11:50 5ft 6s 5s 18 20 mph 1025.5mb 71f 68f
10:50 5ft 8s 5s 20 22 mph 1025.1mb 71f 68f
9:50 5ft 8s 5s 20 25 mph 1024.9mb 71f 68f
8:50 5ft 8s 5s 20 22 mph 1024.5mb 71f 68f
7:50 5ft 8s 5s 20 22 mph 1024.1mb 71f 67f
6:50 5ft 8s 5s 18 22 mph 1023.5mb 71f 67f
5:50 5ft 9s 5s 20 22 mph 1022.9mb 71f 67f